FW4655 Weather Reports


Display with metric or nautical units.
time (UTC)temp
F
wind
direction
speed
MPH
gust
MPH
rain 1hr
in
rain 24hr
in
rain mn
in
humidity
%
barometer
mb
20260831073047 60 150 0.0 0.0 0.00 0.00 0.00 77 1015.4
20260831072515 60 150 0.0 0.0 0.00 0.00 0.00 77 1015.5
20260831072011 60 150 0.0 1.0 0.00 0.00 0.00 77 1015.5
20260831071525 61 150 0.0 1.0 0.00 0.00 0.00 77 1015.5
20260831071017 60 143 0.0 0.0 0.00 0.00 0.00 76 1015.5
20260831070514 60 143 0.0 0.0 0.00 0.00 0.00 76 1015.6
20260831070032 61 143 0.0 0.0 0.00 0.00 0.00 76 1015.7
20260831065522 61 143 0.0 1.0 0.00 0.00 0.00 75 1015.7
20260831065017 62 143 0.0 1.0 0.00 0.00 0.00 74 1015.7
20260831064538 62 143 0.0 1.0 0.00 0.00 0.00 74 1015.8
20260831064019 62 146 0.0 1.0 0.00 0.00 0.00 74 1015.7
20260831063520 62 146 0.0 1.0 0.00 0.00 0.00 74 1015.8
20260831063030 62 162 0.0 1.0 0.00 0.00 0.00 73 1015.8
20260831062519 63 96 0.0 1.0 0.00 0.00 0.00 73 1015.9
20260831062017 63 96 0.0 3.0 0.00 0.00 0.00 73 1015.9
20260831061520 63 77 0.0 3.0 0.00 0.00 0.00 73 1015.9
20260831061013 63 123 0.0 3.0 0.00 0.00 0.00 73 1015.9
20260831060515 63 128 0.0 3.0 0.00 0.00 0.00 72 1016.0
20260831060025 64 98 0.0 3.0 0.00 0.00 0.00 72 1016.1
20260831055504 64 110 0.0 5.0 0.00 0.00 0.00 72 1016.2
20260831055004 64 79 2.0 5.0 0.00 0.00 0.00 72 1016.2
20260831054507 64 77 0.0 5.0 0.00 0.00 0.00 72 1016.2
20260831054004 64 100 0.0 5.0 0.00 0.00 0.00 72 1016.3
20260831053506 64 53 0.0 4.0 0.00 0.00 0.00 72 1016.3
20260831053018 64 39 0.0 5.0 0.00 0.00 0.00 71 1016.3
20260831052511 64 27 0.0 5.0 0.00 0.00 0.00 71 1016.4
20260831052010 64 86 2.0 6.0 0.00 0.00 0.00 71 1016.4
20260831051516 64 25 0.0 6.0 0.00 0.00 0.00 70 1016.4
20260831051011 65 63 1.0 4.0 0.00 0.00 0.00 70 1016.4
20260831050518 65 352 0.0 5.0 0.00 0.00 0.00 69 1016.5
20260831050037 65 94 0.0 5.0 0.00 0.00 0.00 69 1016.5
20260831045513 65 146 2.0 5.0 0.00 0.00 0.00 69 1016.5
20260831045014 65 74 0.0 4.0 0.00 0.00 0.00 69 1016.6
20260831044527 65 33 0.0 3.0 0.00 0.00 0.00 69 1016.6
20260831044020 65 99 2.0 3.0 0.00 0.00 0.00 69 1016.6
20260831043505 65 58 0.0 2.0 0.00 0.00 0.00 68 1016.7
20260831043009 65 51 1.0 6.0 0.00 0.00 0.00 68 1016.7
20260831042506 66 82 0.0 6.0 0.00 0.00 0.00 67 1016.7
20260831042007 66 40 1.0 6.0 0.00 0.00 0.00 67 1016.7
20260831041511 66 33 1.0 4.0 0.00 0.00 0.00 67 1016.8
20260831041009 66 45 1.0 4.0 0.00 0.00 0.00 67 1016.8
20260831040512 66 49 0.0 4.0 0.00 0.00 0.00 66 1016.7
20260831040039 66 96 1.0 4.0 0.00 0.00 0.00 66 1016.7
20260831035512 66 82 0.0 2.0 0.00 0.00 0.00 65 1016.7
20260831035012 67 77 0.0 4.0 0.00 0.00 0.00 65 1016.8
20260831034531 67 52 0.0 5.0 0.00 0.00 0.00 64 1016.8
20260831034016 67 93 0.0 5.0 0.00 0.00 0.00 64 1016.7
20260831033516 67 59 2.0 5.0 0.00 0.00 0.00 64 1016.7
20260831033027 67 54 2.0 4.0 0.00 0.00 0.00 63 1016.8
20260831032514 67 50 1.0 6.0 0.00 0.00 0.00 63 1016.7
20260831032018 68 65 3.0 8.0 0.00 0.00 0.00 63 1016.7
20260831031529 68 104 3.0 8.0 0.00 0.00 0.00 62 1016.7
20260831031023 68 79 1.0 7.0 0.00 0.00 0.00 62 1016.8
20260831030515 68 58 4.0 7.0 0.00 0.00 0.00 62 1016.8
20260831030043 68 94 2.0 7.0 0.00 0.00 0.00 61 1016.8
20260831025517 68 79 2.0 7.0 0.00 0.00 0.00 61 1016.8
20260831025020 69 79 3.0 11.0 0.00 0.00 0.00 60 1016.9
20260831024518 69 49 3.0 11.0 0.00 0.00 0.00 60 1016.8
20260831024016 69 95 2.0 11.0 0.00 0.00 0.00 59 1016.9
20260831023519 69 70 3.0 11.0 0.00 0.00 0.00 59 1017.0
20260831023026 69 54 3.0 12.0 0.00 0.00 0.00 59 1017.1
20260831022519 69 66 4.0 12.0 0.00 0.00 0.00 58 1017.0
20260831022015 70 34 4.0 9.0 0.00 0.00 0.00 58 1017.1
20260831021531 70 57 3.0 6.0 0.00 0.00 0.00 57 1017.0
20260831021014 70 56 2.0 10.0 0.00 0.00 0.00 57 1017.1
20260831020516 70 63 4.0 10.0 0.00 0.00 0.00 57 1017.1
20260831020031 71 60 4.0 11.0 0.00 0.00 0.00 56 1017.1
20260831015518 71 63 5.0 11.0 0.00 0.00 0.00 55 1017.1
20260831015019 71 61 4.0 11.0 0.00 0.00 0.00 55 1017.1
20260831014539 72 64 3.0 9.0 0.00 0.00 0.00 54 1017.1
20260831014018 72 65 4.0 7.0 0.00 0.00 0.00 54 1017.2
20260831013519 72 96 4.0 9.0 0.00 0.00 0.00 54 1017.2
20260831013035 72 58 4.0 13.0 0.00 0.00 0.00 54 1017.3
20260831012514 72 58 5.0 13.0 0.00 0.00 0.00 53 1017.4
20260831012013 72 60 6.0 11.0 0.00 0.00 0.00 53 1017.4
20260831011536 73 39 4.0 11.0 0.00 0.00 0.00 52 1017.5
20260831011018 73 46 4.0 9.0 0.00 0.00 0.00 52 1017.5
20260831010514 72 57 4.0 9.0 0.00 0.00 0.00 52 1017.5
20260831010031 73 82 4.0 9.0 0.00 0.00 0.00 52 1017.6
20260831005516 73 105 5.0 10.0 0.00 0.00 0.00 51 1017.7
20260831005020 73 72 5.0 12.0 0.00 0.00 0.00 51 1017.7
20260831004530 73 42 4.0 12.0 0.00 0.00 0.00 51 1017.7
20260831004018 73 66 4.0 10.0 0.00 0.00 0.00 51 1017.8
20260831003519 73 53 2.0 11.0 0.00 0.00 0.00 50 1017.8
20260831003032 73 80 3.0 11.0 0.00 0.00 0.00 51 1017.9
20260831002518 73 51 4.0 10.0 0.00 0.00 0.00 50 1017.8
20260831002019 73 45 2.0 12.0 0.00 0.00 0.00 50 1017.9
20260831001508 73 71 3.0 12.0 0.00 0.00 0.00 50 1017.9
20260831001004 73 68 5.0 10.0 0.00 0.00 0.00 49 1017.8
20260831000503 73 62 2.0 8.0 0.00 0.00 0.00 49 1017.9
20260831000006 73 79 4.0 9.0 0.00 0.00 0.00 50 1018.0
20260830235504 73 42 6.0 9.0 0.00 0.00 0.00 49 1018.0
20260830235005 74 49 2.0 8.0 0.00 0.00 0.00 48 1018.0
20260830234511 74 56 4.0 8.0 0.00 0.00 0.00 47 1018.1
20260830234005 74 125 1.0 11.0 0.00 0.00 0.00 48 1018.1
20260830233513 73 84 2.0 11.0 0.00 0.00 0.00 49 1018.2
20260830233025 73 77 5.0 11.0 0.00 0.00 0.00 49 1018.2
20260830232511 73 252 3.0 11.0 0.00 0.00 0.00 49 1018.3
20260830232011 73 55 5.0 11.0 0.00 0.00 0.00 48 1018.3
20260830231520 73 22 3.0 10.0 0.00 0.00 0.00 49 1018.4
20260830231011 72 85 3.0 12.0 0.00 0.00 0.00 50 1018.4
20260830230511 73 82 3.0 12.0 0.00 0.00 0.00 49 1018.4
20260830230004 73 62 4.0 9.0 0.00 0.00 0.00 49 1018.5
20260830225504 73 90 3.0 10.0 0.00 0.00 0.00 49 1018.6
20260830225004 73 87 5.0 10.0 0.00 0.00 0.00 49 1018.6
20260830224507 73 293 4.0 8.0 0.00 0.00 0.00 49 1018.7
20260830224004 73 35 2.0 10.0 0.00 0.00 0.00 50 1018.8
20260830223509 72 96 3.0 10.0 0.00 0.00 0.00 50 1019.1
20260830223014 72 63 3.0 10.0 0.00 0.00 0.00 50 1019.1
20260830222508 72 143 3.0 10.0 0.00 0.00 0.00 50 1019.2
20260830222010 72 121 3.0 12.0 0.00 0.00 0.00 50 1019.3
20260830221516 72 44 3.0 12.0 0.00 0.00 0.00 50 1019.4
20260830221013 72 331 4.0 9.0 0.00 0.00 0.00 50 1019.5
20260830220513 72 322 2.0 11.0 0.00 0.00 0.00 50 1019.6
20260830220043 72 158 3.0 11.0 0.00 0.00 0.00 50 1019.6
20260830215518 72 93 3.0 11.0 0.00 0.00 0.00 49 1019.8
20260830215016 71 115 1.0 11.0 0.00 0.00 0.00 51 1019.8
20260830214528 71 107 5.0 11.0 0.00 0.00 0.00 51 1019.8
20260830214004 71 48 4.0 9.0 0.00 0.00 0.00 51 1019.8
20260830213504 71 50 5.0 11.0 0.00 0.00 0.00 51 1019.8
20260830213012 70 69 4.0 11.0 0.00 0.00 0.00 52 1019.8
20260830212506 71 40 3.0 7.0 0.00 0.00 0.00 52 1019.9
20260830212006 70 39 2.0 7.0 0.00 0.00 0.00 52 1019.9
20260830211515 70 76 2.0 13.0 0.00 0.00 0.00 53 1020.0
20260830211011 70 32 6.0 13.0 0.00 0.00 0.00 52 1020.1
20260830210512 70 44 5.0 13.0 0.00 0.00 0.00 53 1020.1
20260830210024 70 335 1.0 9.0 0.00 0.00 0.00 53 1020.2
20260830205516 70 309 2.0 11.0 0.00 0.00 0.00 53 1020.3
20260830205012 71 34 5.0 11.0 0.00 0.00 0.00 52 1020.3
20260830204525 71 98 2.0 8.0 0.00 0.00 0.00 52 1020.4
20260830204014 70 203 2.0 8.0 0.00 0.00 0.00 52 1020.5
20260830203516 69 113 2.0 8.0 0.00 0.00 0.00 53 1020.6
20260830203028 70 68 3.0 7.0 0.00 0.00 0.00 51 1020.8
20260830202514 69 234 3.0 10.0 0.00 0.00 0.00 53 1020.8
20260830202008 68 99 2.0 10.0 0.00 0.00 0.00 53 1020.8
20260830201509 69 91 3.0 10.0 0.00 0.00 0.00 54 1020.8
20260830201008 68 49 2.0 6.0 0.00 0.00 0.00 54 1020.8
20260830200510 68 344 4.0 6.0 0.00 0.00 0.00 53 1020.8
20260830200013 68 134 1.0 5.0 0.00 0.00 0.00 53 1020.9
20260830195509 68 72 2.0 6.0 0.00 0.00 0.00 54 1020.8
20260830195012 67 151 2.0 9.0 0.00 0.00 0.00 55 1020.9
20260830194524 67 59 4.0 9.0 0.00 0.00 0.00 55 1021.1
20260830194014 66 214 1.0 9.0 0.00 0.00 0.00 56 1021.0
20260830193513 66 41 3.0 9.0 0.00 0.00 0.00 55 1021.1
20260830193029 67 46 5.0 8.0 0.00 0.00 0.00 55 1021.1
20260830192515 67 70 1.0 5.0 0.00 0.00 0.00 56 1021.1
20260830192014 67 133 3.0 5.0 0.00 0.00 0.00 57 1021.3
20260830191610 66 151 1.0 7.0 0.00 0.00 0.00 58 1021.3
20260830191018 65 131 3.0 9.0 0.00 0.00 0.00 58 1021.4
20260830190517 66 46 4.0 9.0 0.00 0.00 0.00 57 1021.4
20260830190013 66 94 1.0 8.0 0.00 0.00 0.00 58 1021.4
20260830185508 66 82 2.0 8.0 0.00 0.00 0.00 57 1021.4
20260830185016 66 91 1.0 5.0 0.00 0.00 0.00 57 1021.5
20260830184517 65 51 0.0 6.0 0.00 0.00 0.00 57 1021.5
20260830184011 64 23 2.0 7.0 0.00 0.00 0.00 59 1021.5
20260830183509 64 84 2.0 7.0 0.00 0.00 0.00 60 1021.6
20260830183023 64 75 3.0 9.0 0.00 0.00 0.00 61 1021.6
20260830182517 64 39 5.0 40.0 0.00 0.00 0.00 62 1021.6
20260830182017 64 59 4.0 40.0 0.00 0.00 0.00 61 1021.7
20260830181528 64 40 2.0 52.0 0.00 0.00 0.00 60 1021.7
20260830181014 64 84 2.0 52.0 0.00 0.00 0.00 60 1021.6
20260830180518 63 46 2.0 8.0 0.00 0.00 0.00 61 1021.6
20260830180036 64 37 1.0 5.0 0.00 0.00 0.00 63 1021.6
20260830175518 64 100 3.0 5.0 0.00 0.00 0.00 63 1021.6
20260830175021 64 71 1.0 6.0 0.00 0.00 0.00 64 1021.5
20260830174536 64 18 2.0 6.0 0.00 0.00 0.00 64 1021.5
20260830174008 63 2 1.0 7.0 0.00 0.00 0.00 66 1021.6
20260830173512 62 101 0.0 7.0 0.00 0.00 0.00 67 1021.6
20260830173018 63 42 3.0 6.0 0.00 0.00 0.00 66 1021.7
20260830172517 63 65 3.0 6.0 0.00 0.00 0.00 65 1021.6
20260830172014 63 102 2.0 6.0 0.00 0.00 0.00 65 1021.6
20260830171527 64 221 2.0 4.0 0.00 0.00 0.00 65 1021.6
20260830171016 62 105 0.0 3.0 0.00 0.00 0.00 68 1021.6
20260830170514 62 190 1.0 3.0 0.00 0.00 0.00 69 1021.6
20260830170030 61 72 1.0 3.0 0.00 0.00 0.00 69 1021.6
20260830165517 61 223 1.0 3.0 0.00 0.00 0.00 71 1021.6
20260830165022 61 140 0.0 0.0 0.00 0.00 0.00 72 1021.6
20260830164532 60 141 0.0 0.0 0.00 0.00 0.00 72 1021.5
20260830164017 60 139 0.0 0.0 0.00 0.00 0.00 73 1021.6
20260830163520 60 103 0.0 3.0 0.00 0.00 0.00 73 1021.6
20260830163038 60 37 0.0 5.0 0.00 0.00 0.00 74 1021.7
20260830162518 60 6 2.0 5.0 0.00 0.00 0.00 73 1021.8
20260830162010 60 44 1.0 4.0 0.00 0.00 0.00 74 1021.9
20260830161518 60 32 1.0 4.0 0.00 0.00 0.00 74 1021.9
20260830161019 60 47 2.0 4.0 0.00 0.00 0.00 74 1021.8
20260830160515 60 155 1.0 3.0 0.00 0.00 0.00 76 1021.9
20260830160035 59 148 1.0 2.0 0.00 0.00 0.00 77 1021.8
20260830155513 59 53 0.0 0.0 0.00 0.00 0.00 77 1021.8
20260830155018 58 92 0.0 0.0 0.00 0.00 0.00 78 1021.8
20260830154529 58 147 0.0 0.0 0.00 0.00 0.00 79 1021.9
20260830154017 57 52 0.0 0.0 0.00 0.00 0.00 80 1021.9
20260830153514 57 68 0.0 0.0 0.00 0.00 0.00 81 1022.0
20260830153034 57 101 0.0 0.0 0.00 0.00 0.00 80 1022.0
20260830152523 56 153 0.0 0.0 0.00 0.00 0.00 80 1022.1
20260830152018 56 109 0.0 0.0 0.00 0.00 0.00 81 1022.2
20260830151504 55 88 0.0 0.0 0.00 0.00 0.00 82 1022.2
20260830151008 55 88 0.0 0.0 0.00 0.00 0.00 83 1022.2
20260830150503 54 88 0.0 0.0 0.00 0.00 0.00 83 1022.1
20260830150016 53 88 0.0 0.0 0.00 0.00 0.00 84 1022.1
20260830145505 53 88 0.0 0.0 0.00 0.00 0.00 85 1022.1
20260830145004 53 88 0.0 0.0 0.00 0.00 0.00 85 1022.1
20260830144517 52 88 0.0 0.0 0.00 0.00 0.00 85 1022.1
20260830144006 52 88 0.0 0.0 0.00 0.00 0.00 85 1022.1
20260830143504 52 88 0.0 0.0 0.00 0.00 0.00 85 1022.1
20260830143006 51 88 0.0 0.0 0.00 0.00 0.00 85 1022.1
20260830142506 51 88 0.0 0.0 0.00 0.00 0.00 84 1022.1
20260830142006 51 88 0.0 0.0 0.00 0.00 0.00 85 1022.0
20260830141514 51 88 0.0 0.0 0.00 0.00 0.00 85 1022.1
20260830141005 51 88 0.0 0.0 0.00 0.00 0.00 85 1022.1
20260830140506 51 88 0.0 0.0 0.00 0.00 0.00 86 1021.9
20260830140008 51 88 0.0 0.0 0.00 0.00 0.00 86 1021.9
20260830135506 51 88 0.0 0.0 0.00 0.00 0.00 86 1021.9
20260830135006 51 88 0.0 0.0 0.00 0.00 0.00 86 1021.9
20260830134510 50 88 0.0 0.0 0.00 0.00 0.00 87 1021.8
20260830134008 50 88 0.0 0.0 0.00 0.00 0.00 87 1021.8
20260830133508 50 88 0.0 0.0 0.00 0.00 0.00 88 1021.8
20260830133010 50 88 0.0 0.0 0.00 0.00 0.00 88 1021.8
20260830132513 49 88 0.0 0.0 0.00 0.00 0.00 88 1021.9
20260830132006 49 88 0.0 0.0 0.00 0.00 0.00 88 1021.9
20260830131515 49 88 0.0 0.0 0.00 0.01 0.00 88 1021.9
20260830131007 49 88 0.0 0.0 0.00 0.01 0.00 88 1021.8
20260830130508 49 88 0.0 0.0 0.00 0.01 0.00 88 1021.8
20260830130010 48 88 0.0 0.0 0.00 0.01 0.00 89 1021.8
20260830125507 48 88 0.0 0.0 0.00 0.01 0.00 88 1021.8
20260830125007 48 88 0.0 0.0 0.00 0.01 0.00 88 1021.8
20260830124513 48 88 0.0 0.0 0.00 0.01 0.00 89 1021.8
20260830124006 48 88 0.0 0.0 0.00 0.02 0.00 88 1021.8
20260830123510 48 88 0.0 0.0 0.00 0.02 0.00 87 1021.8
20260830123011 48 88 0.0 0.0 0.00 0.02 0.00 87 1021.7
20260830122506 48 88 0.0 0.0 0.00 0.02 0.00 88 1021.8
20260830122013 48 88 0.0 0.0 0.00 0.02 0.00 87 1021.7
20260830121517 48 88 0.0 0.0 0.00 0.02 0.00 87 1021.8
20260830121010 49 88 0.0 0.0 0.00 0.02 0.00 87 1021.7
20260830120510 49 88 0.0 0.0 0.00 0.02 0.00 88 1021.7
20260830120014 48 88 0.0 0.0 0.00 0.02 0.00 87 1021.7
20260830115510 48 88 0.0 0.0 0.00 0.02 0.00 87 1021.7
20260830115010 48 88 0.0 0.0 0.00 0.02 0.00 86 1021.7
20260830114512 49 88 0.0 0.0 0.00 0.02 0.00 86 1021.8
20260830114007 49 88 0.0 0.0 0.00 0.02 0.00 86 1021.8
20260830113512 49 88 0.0 0.0 0.00 0.02 0.00 87 1021.7
20260830113019 49 88 0.0 0.0 0.00 0.02 0.00 87 1021.7
20260830112512 49 88 0.0 0.0 0.00 0.02 0.00 87 1021.7
20260830112012 49 88 0.0 0.0 0.00 0.02 0.00 87 1021.6
20260830111524 49 88 0.0 0.0 0.00 0.02 0.00 87 1021.6
20260830111008 49 88 0.0 0.0 0.00 0.02 0.00 86 1021.6
20260830110512 49 88 0.0 0.0 0.00 0.02 0.00 86 1021.6
20260830110016 49 88 0.0 0.0 0.00 0.02 0.00 85 1021.7
20260830105510 49 88 0.0 0.0 0.00 0.02 0.00 86 1021.7
20260830105012 50 88 0.0 0.0 0.00 0.02 0.00 86 1021.7
20260830104519 50 88 0.0 0.0 0.00 0.02 0.00 86 1021.7
20260830104009 49 88 0.0 0.0 0.00 0.02 0.00 86 1021.7
20260830103512 49 88 0.0 0.0 0.00 0.02 0.00 86 1021.7
20260830103018 49 88 0.0 0.0 0.00 0.02 0.00 86 1021.6
20260830102511 50 88 0.0 0.0 0.00 0.02 0.00 86 1021.5
20260830102015 49 88 0.0 0.0 0.00 0.02 0.00 86 1021.5
20260830101518 49 88 0.0 0.0 0.00 0.02 0.00 85 1021.4
20260830101010 50 88 0.0 0.0 0.00 0.02 0.00 85 1021.4
20260830100510 50 88 0.0 0.0 0.00 0.02 0.00 85 1021.4
20260830100020 50 88 0.0 0.0 0.00 0.02 0.00 85 1021.4
20260830095513 50 88 0.0 0.0 0.00 0.02 0.00 84 1021.4
20260830095014 50 88 0.0 0.0 0.00 0.02 0.00 83 1021.4
20260830094529 51 88 0.0 0.0 0.00 0.02 0.00 83 1021.5
20260830094010 51 88 0.0 0.0 0.00 0.02 0.00 83 1021.4
20260830093516 51 88 0.0 0.0 0.00 0.02 0.00 83 1021.4
20260830093030 51 88 0.0 0.0 0.00 0.02 0.00 84 1021.4
20260830092516 52 88 0.0 0.0 0.00 0.02 0.00 83 1021.4
20260830092012 52 88 0.0 0.0 0.00 0.02 0.00 83 1021.4
20260830091523 52 88 0.0 0.0 0.00 0.02 0.00 83 1021.4
20260830091013 52 88 0.0 0.0 0.00 0.02 0.00 82 1021.4
20260830090514 52 88 0.0 0.0 0.00 0.02 0.00 82 1021.4
20260830090026 52 88 0.0 0.0 0.00 0.02 0.00 82 1021.4
20260830085512 53 88 0.0 0.0 0.00 0.02 0.00 82 1021.4
20260830085016 53 88 0.0 0.0 0.00 0.02 0.00 82 1021.5
20260830084525 53 88 0.0 0.0 0.00 0.02 0.00 83 1021.5
20260830084014 53 88 0.0 0.0 0.00 0.02 0.00 81 1021.4
20260830083514 53 88 0.0 0.0 0.00 0.02 0.00 81 1021.4
20260830083029 53 88 0.0 0.0 0.00 0.02 0.00 82 1021.5
20260830082513 53 88 0.0 0.0 0.00 0.02 0.00 81 1021.5
20260830082018 53 88 0.0 0.0 0.00 0.02 0.00 81 1021.6
20260830081533 53 88 0.0 0.0 0.00 0.02 0.00 81 1021.5
20260830081013 53 88 0.0 0.0 0.00 0.02 0.00 81 1021.5
20260830080516 53 88 0.0 0.0 0.00 0.02 0.00 81 1021.5
20260830080027 53 88 0.0 0.0 0.00 0.02 0.00 80 1021.5
20260830075514 54 88 0.0 0.0 0.00 0.02 0.00 79 1021.4
20260830075012 54 88 0.0 0.0 0.00 0.02 0.00 78 1021.4
20260830074527 54 88 0.0 0.0 0.00 0.02 0.00 78 1021.4
20260830074015 55 88 0.0 0.0 0.00 0.02 0.00 78 1021.4
20260830073513 55 88 0.0 0.0 0.00 0.02 0.00 77 1021.4